Location: Greenwich
(51.4790°N, 0.0090°E)
Time: 08:31:32
(UTC+01:00)

Explorer 7 - Pass Details

Date: 26 April 2024
Orbit: 467 x 625 km, 50.3° (Epoch: 24 May)

Event Time Altitude Azimuth Distance (km) Brightness Sun altitude
Rises 13:44:16 0° 278° (W) 2,913 10.6 51.2°
Reaches altitude 10° 13:46:36 10° 275° (W) 2,008 9.9 51.0°
Maximum altitude 13:51:11 65° 195° (SSW) 692 9.4 50.8°
Drops below altitude 10° 13:55:43 10° 114° (ESE) 1,980 9.8 50.5°
Sets 13:58:00 0° 111° (ESE) 2,868 10.5 50.4°
